Grove, OK

4:33 AM CST on December 13, 2019 (GMT -0600)
Grove Municipal

Weather History for KGMJ - October, 2019

Change the Weather History Date:

Saturday, October 19, 2019

  Actual Average (WUND) Record (WUND)
Temperature  
Mean Temperature 58 °F -  
Max Temperature 69 °F - - (-1)
Min Temperature 46 °F - - (-1)
Degree Days  
Heating Degree Days 8    
Growing Degree Days 8 (Base 50)    
Moisture  
Dew Point 50 °F    
Average Humidity 79    
Maximum Humidity 100    
Minimum Humidity 52    
Precipitation  
Precipitation 0.01 in - - ()
Sea Level Pressure  
Sea Level Pressure 29.79 in    
Wind  
Wind Speed 1 mph ()    
Max Wind Speed 7 mph    
Max Gust Speed -    
Visibility 9.7 miles    
Events Rain    
Averages and records for this station are not official NWS values.
T = Trace of Precipitation, MM = Missing Value Source: Averaged Metar Reports

Daily Weather History Graph

Daily Weather History Graph

Search for Another Location

Airport or City:

Astronomy

Oct. 19, 2019 Rise Set
Actual Time 7:29 AM CDT 6:37 PM CDT
Civil Twilight 7:03 AM CDT 7:03 PM CDT
Nautical Twilight 6:33 AM CDT 7:33 PM CDT
Astronomical Twilight 6:03 AM CDT 8:03 PM CDT
Moon 10:53 PM CDT (10/19) 12:56 PM CDT (10/19)
Length of Visible Light 12h 00m
Length of Day
11h 07m
Waning Gibbous, 69% of the Moon is Illuminated
Oct 19
Waning Gibbous
Oct 21
Last Quarter
Oct 27
New
Nov 4
First Quarter
Nov 12
Full

Hourly Weather History & Observations

Time (CDT) Temp. Windchill Dew Point Humidity Pressure Visibility Wind Dir Wind Speed Gust Speed Precip Events Conditions
12:15 AM 50.0 °F - 44.6 °F 82% 29.75 in 10.0 mi ESE 4.6 mph - N/A   Clear
12:35 AM 50.0 °F - 44.6 °F 82% 29.75 in 10.0 mi Calm Calm - N/A   Clear
12:55 AM 50.0 °F - 44.6 °F 82% 29.75 in 10.0 mi Calm Calm - N/A   Clear
1:15 AM 48.2 °F - 44.6 °F 87% 29.74 in 10.0 mi Calm Calm - N/A   Clear
1:35 AM 48.2 °F - 44.6 °F 87% 29.74 in 10.0 mi Calm Calm - N/A   Clear
1:55 AM 46.4 °F - 44.6 °F 93% 29.75 in 10.0 mi Calm Calm - N/A   Clear
2:15 AM 46.4 °F - 44.6 °F 93% 29.76 in 10.0 mi Calm Calm - N/A   Clear
2:35 AM 46.4 °F - 44.6 °F 93% 29.78 in 10.0 mi Calm Calm - N/A   Clear
3:15 AM 46.4 °F 45.2 °F 44.6 °F 93% 29.77 in 10.0 mi East 3.5 mph - N/A   Clear
3:35 AM 46.4 °F - 44.6 °F 93% 29.76 in 10.0 mi Calm Calm - N/A   Clear
3:55 AM 48.2 °F - 46.4 °F 93% 29.76 in 10.0 mi Calm Calm - N/A   Scattered Clouds
4:35 AM 50.0 °F - 46.4 °F 87% 29.77 in 10.0 mi Calm Calm - N/A   Mostly Cloudy
4:55 AM 50.0 °F - 46.4 °F 87% 29.77 in 10.0 mi NNE 4.6 mph - N/A   Mostly Cloudy
5:15 AM 50.0 °F - 46.4 °F 87% 29.77 in 10.0 mi Calm Calm - N/A   Scattered Clouds
5:35 AM 50.0 °F - 46.4 °F 87% 29.78 in 10.0 mi Calm Calm - N/A   Mostly Cloudy
5:55 AM 50.0 °F - 46.4 °F 87% 29.79 in 10.0 mi Calm Calm - N/A   Scattered Clouds
6:15 AM 51.8 °F - 48.2 °F 88% 29.79 in 10.0 mi Calm Calm - N/A   Mostly Cloudy
6:35 AM 51.8 °F - 48.2 °F 88% 29.79 in 10.0 mi Calm Calm - N/A   Mostly Cloudy
6:55 AM 51.8 °F - 48.2 °F 88% 29.79 in 10.0 mi Calm Calm - N/A Rain Rain
7:15 AM 51.8 °F - 48.2 °F 88% 29.80 in 10.0 mi Calm Calm - N/A   Drizzle
7:35 AM 51.8 °F - 50.0 °F 94% 29.79 in 10.0 mi Calm Calm - N/A Rain Light Rain
7:55 AM 51.8 °F - 50.0 °F 94% 29.80 in 10.0 mi Calm Calm - N/A   Scattered Clouds
8:15 AM 51.8 °F - 50.0 °F 94% 29.80 in 10.0 mi Calm Calm - 0.01 in   Mostly Cloudy
8:35 AM 51.8 °F - 50.0 °F 94% 29.80 in 10.0 mi Calm Calm - 0.01 in   Overcast
8:55 AM 51.8 °F - 50.0 °F 94% 29.80 in 10.0 mi Calm Calm - 0.01 in   Overcast
9:15 AM 53.6 °F - 50.0 °F 88% 29.80 in 10.0 mi East 3.5 mph - N/A   Mostly Cloudy
9:35 AM 53.6 °F - 51.8 °F 94% 29.80 in 10.0 mi Calm Calm - N/A   Overcast
9:55 AM 55.4 °F - 51.8 °F 88% 29.80 in 10.0 mi Calm Calm - N/A   Scattered Clouds
10:15 AM 59.0 °F - 51.8 °F 77% 29.80 in 10.0 mi SSE 3.5 mph - N/A   Scattered Clouds
10:35 AM 60.8 °F - 51.8 °F 72% 29.80 in 10.0 mi Calm Calm - N/A   Scattered Clouds
10:55 AM 62.6 °F - 51.8 °F 68% 29.80 in 10.0 mi South 3.5 mph - N/A Rain Light Rain
11:15 AM 64.4 °F - 50.0 °F 59% 29.80 in 10.0 mi SW 4.6 mph - N/A   Clear
11:55 AM 64.4 °F - 51.8 °F 64% 29.80 in 10.0 mi NW 3.5 mph - N/A   Clear
12:15 PM 64.4 °F - 51.8 °F 64% 29.80 in 10.0 mi Calm Calm - N/A   Clear
12:30 PM 64.4 °F - 53.6 °F 68% 29.80 in 10.0 mi Calm Calm - N/A   Clear
12:55 PM 68.0 °F - 53.6 °F 60% 29.79 in 10.0 mi WSW 4.6 mph - N/A   Clear
1:15 PM 68.0 °F - 51.8 °F 56% 29.78 in 10.0 mi Calm Calm - N/A   Clear
1:35 PM 68.0 °F - 51.8 °F 56% 29.78 in 10.0 mi WNW 4.6 mph - N/A   Clear
1:55 PM 68.0 °F - 51.8 °F 56% 29.78 in 10.0 mi WSW 5.8 mph - N/A   Clear
2:15 PM 68.0 °F - 51.8 °F 56% 29.77 in 10.0 mi West 6.9 mph - N/A   Clear
2:35 PM 69.8 °F - 51.8 °F 53% 29.77 in 10.0 mi Calm Calm - N/A   Clear
2:50 PM 69.8 °F - 51.8 °F 53% 29.77 in 10.0 mi NNW 4.6 mph - N/A   Clear
3:15 PM 69.8 °F - 51.8 °F 53% 29.77 in 10.0 mi Calm Calm - N/A   Clear
3:30 PM 69.8 °F - 51.8 °F 53% 29.78 in - West 4.6 mph - N/A   Clear
3:55 PM 69.8 °F - 51.8 °F 53% 29.77 in - NNW 5.8 mph - N/A   Clear
4:15 PM 69.8 °F - 51.8 °F 53% 29.77 in - NNE 3.5 mph - N/A   Clear
4:35 PM 69.8 °F - 51.8 °F 53% 29.77 in - North 3.5 mph - N/A   Clear
4:55 PM 69.8 °F - 51.8 °F 53% 29.77 in - NNW 3.5 mph - N/A   Clear
5:15 PM 69.8 °F - 51.8 °F 53% 29.78 in - Calm Calm - N/A   Clear
5:35 PM 68.0 °F - 50.0 °F 52% 29.78 in - NNW 3.5 mph - N/A   Clear
6:15 PM 64.4 °F - 51.8 °F 64% 29.79 in 10.0 mi Calm Calm - N/A   Clear
6:55 PM 60.8 °F - 53.6 °F 77% 29.80 in 10.0 mi Calm Calm - N/A   Scattered Clouds
7:15 PM 60.8 °F - 53.6 °F 77% 29.80 in 10.0 mi Calm Calm - N/A   Clear
7:35 PM 57.2 °F - 53.6 °F 88% 29.81 in 10.0 mi Calm Calm - N/A   Scattered Clouds
7:55 PM 59.0 °F - 53.6 °F 82% 29.81 in 10.0 mi Calm Calm - N/A   Mostly Cloudy
8:15 PM 57.2 °F - 53.6 °F 88% 29.82 in 10.0 mi Calm Calm - N/A   Scattered Clouds
8:35 PM 57.2 °F - 53.6 °F 88% 29.82 in 10.0 mi Calm Calm - N/A   Mostly Cloudy
8:55 PM 57.2 °F - 53.6 °F 88% 29.82 in 10.0 mi Calm Calm - N/A   Scattered Clouds
9:15 PM 57.2 °F - 53.6 °F 88% 29.82 in 10.0 mi Calm Calm - N/A   Clear
9:35 PM 55.4 °F - 53.6 °F 94% 29.83 in 10.0 mi Calm Calm - N/A   Clear
9:55 PM 53.6 °F - 51.8 °F 94% 29.84 in 10.0 mi Calm Calm - N/A   Clear
10:15 PM 53.6 °F - 51.8 °F 94% 29.84 in 10.0 mi Calm Calm - N/A   Clear
10:35 PM 53.6 °F - 51.8 °F 94% 29.84 in 10.0 mi Calm Calm - N/A   Clear
10:55 PM 53.6 °F - 51.8 °F 94% 29.85 in 7.0 mi Calm Calm - N/A   Clear
11:35 PM 51.8 °F - 50.0 °F 94% 29.86 in 2.0 mi Calm Calm - N/A   Clear
11:55 PM 51.8 °F - 51.8 °F 100% 29.85 in 1.2 mi Calm Calm - N/A   Mist